Погода в Юрике

США     40°46′51″N   124°09′21″W
темп.,
°C
ветер,
м/с
пор.,
м/с
влажн.,
%
обл.,
%
осадки,
мм/ч
давл.,
гПа
погр.,
м
19 апреля, пн
пн1923:00+8всв239498 0.0 102470
02:00+8с119240 0.0 102350
05:00+8в119388 0.0 102333
08:00+9ссз1290100 0.0 102498
11:00+11ссз468398 0.0 1024340
14:00+11ссз588211 0.0 1024427
17:00+11с588669 0.1 1023423
20:00+10ссв4995100 0.3 1023397
20 апреля, вт
вт2023:00+10с41098100 0.8 1022523
02:00+10ссз71198100 0.5 1021607
05:00+10ссз81297100 1.0 1020589
08:00+10ссз81196100 0.4 1019573
11:00+10ссз7109061 0.7 1018506
14:00+11с9128548 0.1 1017614
17:00+11с8148584 0.1 1016709
20:00+11с6128788 0.0 1016627
21 апреля, ср
ср2123:00+10ссз698975 0.0 1016464
02:00+10с579186 0.0 1015361
05:00+10с229044 0.0 1014126
08:00+10с33896 0.0 1015176
11:00+11ссз558215 0.0 1015335
14:00+12с7118220 0.0 1015500
17:00+11с6118452 0.0 1014496
20:00+11с5108727 0.0 1014407
22 апреля, чт
чт2223:00+10с698840 0.0 1014362
02:00+9ссз349499 0.0 1014164
05:00+9с449458 0.0 1014214
08:00+10с349184 0.0 1015208
11:00+11ссз668211 0.0 1015342
14:00+11с698011 0.0 1016456
17:00+11с598017 0.0 1016459
20:00+10ссв368834 0.0 1016210
23 апреля, пт
пт2323:00+10ссз358599 0.0 1016232
02:00+10ссз478891 0.0 1015374
05:00+9ссв238937 0.0 1015209
08:00+10с228781 0.0 1015174
11:00+11ссз447846 0.0 1015297
14:00+11ссз457370 0.0 1015306
17:00+11ссз4782100 0.0 1015476
20:00+9ссв2389100 0.0 101594